CAPE
0 0 0 0 0 0 0 0 0 0 0 0 0 0 0 0 0 0 0 604 868 954 984 1287 1418 1529 1585 1743 1823 1638 1703 1888 2266 2191 2088 2002 1986 1980 2053 2006 1953 1885 1700 1270 1495 1665 1472 1273 1111
0 0 0 0 0 0 0 0 0 0 0 0 0 0 0 0 50 116 190 435 1082 1100 1121 1279 1508 1611 1720 1809 1897 2035 1876 1762 1799 2074 2182 2117 2047 2023 2096 2052 1869 1804 1814 1374 1541 1495 1326 1172 1076
0 0 0 0 0 0 0 0 0 0 0 0 0 0 0 0 267 371 262 808 1209 1272 1183 1285 1595 1606 1735 1894 1937 2094 1954 1668 1699 1915 2254 2198 2096 2020 1949 1722 1696 1820 1865 1583 1571 1457 1234 1043 726
0 0 0 0 0 0 0 0 0 0 0 0 0 0 0 0 90 506 351 1285 1307 1332 1233 1275 1481 1618 1785 1964 2056 2059 2045 1932 1885 1956 1893 2175 2139 2059 1916 1758 1705 1701 1594 1418 1516 1387 1035 680 433
0 0 0 0 0 0 0 0 0 0 0 0 0 0 0 0 100 396 873 1386 1331 1360 1261 1171 1368 1622 1873 2098 2147 2043 1880 1800 1787 1753 1283 1576 1408 1748 1674 1496 1311 1488 1356 1324 1236 1157 768 503 271
0 0 0 0 0 0 0 0 0 0 0 0 0 0 0 0 162 368 1042 1375 1136 1279 1325 1195 1296 1588 1842 1992 2066 1965 1852 1683 1621 1478 1415 1265 891 1071 993 1217 1191 1340 1206 1036 1102 818 658 395 159
0 0 0 0 0 0 0 0 0 0 0 0 0 0 0 0 2 338 300 891 872 928 1121 1158 1204 1533 1759 1842 1896 1768 1705 1592 1562 1306 1013 893 802 754 776 782 932 1015 919 961 788 635 225 275 80
0 0 0 0 0 0 0 0 0 0 0 0 0 0 0 0 0 14 117 486 836 752 817 1098 1120 1320 1534 1683 1678 1539 1488 1441 1274 1030 942 675 273 272 684 550 650 898 939 818 725 254 99 144 14
0 0 0 0 0 0 0 0 0 0 0 0 0 0 0 0 0 118 193 387 707 596 617 653 917 1027 1247 1517 1492 1472 1346 1245 892 786 558 117 31 76 385 419 570 707 612 599 401 119 40 43 8
0 0 0 0 0 0 0 0 0 0 0 0 0 0 0 0 6 208 267 308 614 738 470 401 601 771 792 998 1011 1544 1552 1186 641 243 220 130 96 106 127 210 363 426 431 352 208 38 21 10 0
0 0 0 0 0 0 0 0 0 0 0 0 0 0 0 0 2 80 151 168 493 795 524 162 164 113 125 336 508 266 427 878 491 89 65 132 75 103 70 153 213 205 243 99 25 0 0 0 0
0 0 0 0 0 0 0 0 0 0 0 0 0 0 0 2 11 60 109 194 246 329 404 138 4 0 0 0 1 0 0 122 598 190 65 21 0 15 89 204 204 158 76 16 0 0 0 0 0
0 0 0 0 0 0 0 0 0 0 0 0 0 0 0 0 5 33 63 88 140 165 125 55 13 0 0 0 0 0 0 1 136 169 69 18 1 4 76 123 101 72 41 36 0 0 0 0 0
0 0 0 0 0 0 0 0 0 0 0 0 0 0 0 0 0 25 38 84 7 98 83 36 43 0 0 0 0 1 0 0 1 34 28 16 11 27 23 54 49 1 1 5 0 0 0 0 0
0 0 0 0 0 0 0 0 0 0 0 0 0 0 0 0 0 0 0 1 67 86 74 64 6 0 0 0 0 1 0 1 2 3 34 20 16 14 11 72 31 0 0 0 0 0 0 0 0
0 0 0 0 0 0 0 0 0 0 0 0 0 0 0 0 0 0 0 0 0 28 91 97 116 0 0 0 0 0 1 0 0 2 3 65 46 13 41 75 0 0 0 0 0 0 0 0 0
0 0 0 0 0 0 0 0 0 0 0 0 0 0 0 0 0 0 0 0 0 0 117 145 124 0 0 0 0 0 0 2 1 1 0 1 69 29 47 59 1 0 0 0 0 0 0 0 0
0 0 0 0 0 0 0 0 0 0 0 0 0 0 0 0 0 0 0 0 0 18 149 146 97 2 0 0 0 4 1 0 1 5 3 2 5 14 33 0 0 0 0 0 0 0 0 0 0
0 0 0 0 0 0 0 0 0 0 0 0 0 0 0 0 0 0 0 0 0 82 130 113 51 0 0 4 9 2 1 1 8 1 1 1 7 3 0 0 0 0 0 0 0 0 0 0 0
0 0 0 0 0 0 0 0 0 0 0 0 0 0 0 0 0 0 0 0 0 113 136 64 33 0 5 12 0 0 0 3 2 1 2 3 13 1 0 0 0 0 0 0 0 0 0 0 0
0 0 0 0 0 0 0 0 0 0 0 0 0 0 0 0 0 0 0 0 0 88 99 54 0 0 0 0 0 0 0 1 1 10 5 15 2 0 0 0 0 0 0 0 0 0 0 0 0
0 0 0 0 0 0 0 0 0 0 0 0 0 0 0 0 0 0 0 0 0 19 2 4 0 0 0 0 0 0 0 0 1 3 10 8 9 2 0 0 0 0 0 0 0 0 0 0 0
0 0 0 0 0 0 0 0 0 0 0 0 0 0 0 0 0 0 0 0 0 0 0 0 0 0 0 0 0 0 0 0 1 3 0 18 22 4 1 0 0 0 0 0 0 0 0 0 0
0 0 0 0 0 0 0 0 0 0 0 0 0 0 0 0 0 0 0 0 0 0 0 0 0 1 0 0 0 0 0 0 2 1 6 5 24 38 12 0 0 0 0 0 0 0 0 0 0
0 0 0 0 0 0 0 0 0 0 0 0 0 0 0 0 0 0 0 0 0 1 0 0 0 1 0 0 0 0 0 0 0 1 3 7 18 8 22 2 0 0 0 0 0 0 0 0 0
0 0 0 0 0 0 0 0 0 0 0 0 0 0 0 0 0 0 0 0 0 0 0 0 0 0 0 0 0 0 0 0 0 0 0 1 4 10 15 25 1 0 0 0 0 0 0 0 0
0 0 0 0 0 0 0 0 0 0 0 0 0 0 0 0 0 0 0 0 0 0 0 0 0 0 0 0 0 0 0 0 0 0 0 0 0 0 3 12 7 1 0 0 0 0 0 0 0
0 0 0 0 0 0 0 0 0 0 0 0 0 0 0 0 0 0 0 0 0 0 0 1 0 0 0 0 0 0 0 0 0 0 1 1 3 1 1 0 11 1 1 0 0 0 0 0 0
0 0 0 0 0 0 0 0 0 0 1 2 0 0 0 0 0 0 0 0 0 0 0 1 0 0 0 0 0 0 0 0 0 0 0 0 0 0 1 1 2 1 0 0 0 1 1 0 1
0 0 0 0 0 0 0 0 0 0 0 0 6 0 0 0 0 0 0 0 0 0 1 1 1 0 1 0 1 4 1 0 0 0 0 0 0 0 0 1 1 1 1 1 1 1 1 0 1
CIN
0 0 0 0 0 0 0 0 0 0 0 0 0 0 0 0 0 0 0 -443 -391 -380 -346 -224 -168 -126 -87 -40 -38 -58 -41 -26 -7 -3 -2 -3 -5 -4 0 0 0 0 0 0 0 0 0 0 0
0 0 0 0 0 0 0 0 0 0 0 0 0 0 0 0 -158 -348 -322 -448 -374 -373 -321 -224 -153 -112 -77 -54 -37 -22 -30 -33 -26 -7 0 0 -3 -1 0 0 -1 -1 -1 -1 0 0 -4 0 0
0 0 0 0 0 0 0 0 0 0 0 0 0 0 0 0 -337 -337 -397 -432 -382 -350 -321 -254 -156 -120 -77 -58 -41 -18 -24 -41 -35 -17 0 -2 -5 -5 -3 -8 -6 -2 -2 0 0 0 -1 0 -2
0 0 0 0 0 0 0 0 0 0 0 0 0 0 0 0 -348 -339 -429 -427 -390 -383 -338 -270 -181 -135 -76 -44 -44 -28 -18 -10 -10 -7 -10 0 0 -1 -1 -1 -2 -1 0 -3 -2 -1 0 -2 -11
0 0 0 0 0 0 0 0 0 0 0 0 0 0 0 0 -506 -398 -474 -425 -406 -385 -356 -305 -209 -140 -86 -33 -30 -42 -36 -16 -9 -28 -18 -30 -11 -1 -2 -3 -5 -2 -2 -3 -5 0 0 -4 -51
0 0 0 0 0 0 0 0 0 0 0 0 0 0 0 0 -458 -422 -442 -433 -446 -415 -340 -310 -216 -128 -94 -37 -29 -40 -39 -34 -30 -31 -34 -51 -41 -28 -22 -15 -8 -5 -7 -5 -8 0 0 -2 -57
0 0 0 0 0 0 0 0 0 0 0 0 0 0 0 0 -81 -528 -647 -491 -466 -454 -370 -326 -262 -134 -85 -71 -37 -42 -30 -20 -28 -31 -60 -50 -65 -43 -46 -40 -7 -7 -7 -16 -9 0 -34 -12 -75
0 0 0 0 0 0 0 0 0 0 0 0 0 0 0 0 0 -903 -796 -564 -435 -456 -439 -334 -294 -187 -113 -86 -68 -48 -25 -10 -30 -42 -35 -50 -118 -91 -30 -151 -9 -8 -9 -12 0 -51 -93 -42 -121
0 0 0 0 0 0 0 0 0 0 0 0 0 0 0 0 0 -557 -538 -554 -481 -499 -467 -449 -334 -262 -174 -81 -87 -45 -17 -13 -44 -40 -56 -151 -200 -141 -68 -88 -21 -15 -13 -6 0 -76 -179 -101 -200
0 0 0 0 0 0 0 0 0 0 0 0 0 0 0 0 -631 -382 -438 -456 -486 -464 -526 -528 -437 -333 -270 -162 -137 -39 -7 -3 -58 -106 -70 -90 -110 -112 -104 -111 -39 -41 -12 -9 -2 -129 -187 -140 0
0 0 0 0 0 0 0 0 0 0 0 0 0 0 0 -61 -581 -438 -460 -506 -500 -500 -519 -623 -568 -543 -483 -317 -231 -277 -200 -36 -52 -116 -90 -40 -66 -80 -103 -87 -29 -24 -10 -16 -13 0 0 0 0
0 0 0 0 0 0 0 0 0 0 0 0 0 0 0 -341 -473 -471 -480 -512 -588 -604 -559 -609 -476 0 0 0 0 0 0 -194 -22 -63 -49 -71 -23 -84 -56 -46 -5 -14 -37 -57 0 0 0 0 0
0 0 0 0 0 0 0 0 0 0 0 0 0 0 0 0 -313 -488 -486 -489 -540 -587 -659 -668 -553 0 0 0 0 0 0 0 -33 -34 -49 -44 -58 -53 -30 -57 -47 -38 -89 -155 0 0 0 0 0
0 0 0 0 0 0 0 0 0 0 0 0 0 0 0 0 0 -423 -454 -435 -594 -600 -699 -709 -623 0 0 0 0 0 0 0 -1 -19 -26 -42 -75 -44 -19 -29 -36 -17 -59 -244 0 0 0 0 0
0 0 0 0 0 0 0 0 0 0 0 0 0 0 0 0 0 0 0 -28 -427 -549 -655 -736 -486 0 0 0 0 0 0 0 0 0 -42 -26 -49 -15 -22 -2 -42 -30 0 0 0 0 0 0 0
0 0 0 0 0 0 0 0 0 0 0 0 0 0 0 0 0 0 0 0 0 -587 -766 -729 -601 0 0 0 0 0 0 0 0 0 -33 -14 -9 -9 -2 -1 0 0 0 0 0 0 0 0 0
0 0 0 0 0 0 0 0 0 0 0 0 0 0 0 0 0 0 0 0 0 0 -819 -719 -626 0 0 0 0 0 -1 -1 -1 0 0 -61 -3 -4 -2 -2 0 0 0 0 0 0 0 0 0
0 0 0 0 0 0 0 0 0 0 0 0 0 0 0 0 0 0 0 0 0 -759 -795 -729 -653 -320 0 0 0 0 0 0 0 0 0 0 -1 -13 -3 -1 0 0 0 0 0 0 0 0 0
0 0 0 0 0 0 0 0 0 0 0 0 0 0 0 0 0 0 0 0 0 -816 -804 -752 -699 0 0 -548 -395 0 0 0 0 0 0 0 0 -10 0 0 0 0 0 0 0 0 0 0 0
0 0 0 0 0 0 0 0 0 0 0 0 0 0 0 0 0 0 0 0 0 -770 -781 -764 -721 0 -459 -509 -1 0 -1 0 -1 -1 0 0 -3 0 -1 0 0 0 0 0 0 0 0 0 0
0 0 0 0 0 0 0 0 0 0 0 0 0 0 0 0 0 0 0 0 0 -787 -781 -756 -269 0 0 0 0 0 0 0 -1 -1 0 -120 -1 0 0 0 0 0 0 0 0 0 0 0 0
0 0 0 0 0 0 0 0 0 0 0 0 0 0 0 0 0 0 0 0 0 -767 -156 -772 0 0 0 0 0 0 0 0 0 0 -5 -6 -29 0 0 0 0 0 0 0 0 0 0 0 0
0 0 0 0 0 0 0 0 0 0 0 0 0 0 0 0 0 0 0 0 0 0 0 0 0 0 0 0 0 0 0 0 -3 -10 -1 -39 -65 -8 0 0 0 0 0 0 0 0 0 0 0
0 0 0 0 0 0 0 0 0 0 0 0 0 0 0 0 0 0 0 0 0 0 0 0 0 0 0 0 0 0 0 0 -15 -2 -3 -11 -40 -48 -16 0 0 0 0 0 0 0 0 0 0
0 0 0 0 0 0 0 0 0 0 0 0 0 0 0 0 0 0 0 0 0 0 0 0 0 0 0 0 0 0 0 0 0 -6 -12 -31 -9 -14 -11 -15 0 0 0 0 0 0 0 0 0
0 0 0 0 0 0 0 0 0 0 0 0 0 0 0 0 0 0 0 0 0 -38 0 0 0 0 0 0 0 0 0 0 0 0 0 -6 -33 -6 -18 -16 -29 0 0 0 0 0 0 0 0
0 0 0 0 0 0 0 0 0 0 0 0 0 0 0 0 0 0 0 0 0 0 0 0 0 0 0 0 0 0 -5 -8 -11 0 0 0 0 0 -18 -12 -15 -1 0 0 0 0 0 0 0
0 0 0 0 0 0 0 0 0 0 0 0 0 0 0 0 0 0 0 0 0 0 0 -1 0 0 0 0 0 0 -12 -17 -33 0 -3 -5 -7 -10 0 -1 -13 0 -43 0 0 0 0 0 -63
0 0 0 0 0 0 0 0 0 0 -7 -8 0 0 0 0 0 0 0 0 0 0 0 0 0 -1 -1 0 0 -8 -21 0 0 0 0 0 0 0 0 0 -8 -2 0 0 0 -1 0 0 -47
0 0 0 -2 0 0 0 0 0 0 0 0 -59 0 0 0 0 0 0 0 0 0 0 0 0 0 -1 0 -6 -3 -13 0 0 0 0 0 0 0 0 -14 0 0 0 0 0 0 0 0 0
Wind_Speed
4 4 2 5 4 5 3 6 3 4 3 2 4 5 8 4 7 7 4 8 6 7 9 10 14 16 17 15 16 17 16 18 18 18 19 20 20 20 18 17 16 18 19 20 21 17 20 20 19
4 3 5 3 6 3 6 4 4 5 5 4 1 1 1 2 1 1 2 8 8 9 9 13 13 16 17 17 17 16 18 20 21 20 20 19 19 19 18 17 16 15 17 19 19 19 20 21 19
6 4 4 5 4 5 5 6 4 4 7 3 4 2 4 3 2 4 6 10 9 9 9 13 15 16 17 17 17 17 18 20 20 21 20 20 20 20 19 18 16 15 16 17 20 20 21 20 20
3 5 5 4 6 7 6 2 4 9 8 4 5 5 3 4 5 9 8 10 11 11 10 10 15 15 17 18 18 18 19 18 18 18 20 17 16 20 17 13 15 15 15 14 18 22 20 19 20
5 4 3 2 6 6 6 4 2 6 4 5 5 6 4 4 3 5 8 12 14 10 9 8 14 16 17 18 19 18 17 18 20 22 23 22 16 14 14 14 12 12 13 14 16 20 18 19 20
5 4 3 5 7 4 5 7 1 3 5 7 4 4 6 1 2 6 7 8 6 10 7 7 13 14 16 16 17 18 17 18 18 17 20 21 15 15 10 12 11 10 11 14 17 17 17 16 18
8 5 6 5 5 6 6 5 4 3 2 3 3 3 5 7 6 4 5 5 3 6 7 7 10 11 12 13 12 15 17 18 17 18 19 21 27 21 22 18 9 12 13 15 17 16 17 18 17
6 5 6 6 4 8 3 3 4 5 5 5 2 3 6 5 3 7 8 6 3 3 6 9 10 10 9 10 13 12 14 17 18 20 21 18 19 16 19 26 11 12 15 16 16 17 17 18 16
3 4 5 7 7 6 3 5 3 2 4 4 4 3 7 1 5 6 3 3 4 4 5 7 12 13 12 11 9 13 14 16 15 18 21 17 9 13 16 18 20 17 15 16 15 16 15 16 16
5 5 12 8 6 6 3 2 11 4 6 8 7 6 1 3 5 8 7 8 6 7 8 9 10 12 11 7 6 9 10 9 10 11 14 11 9 10 11 16 21 21 17 18 16 15 15 13 7
5 6 5 6 8 6 4 3 5 3 6 8 12 12 1 5 7 8 11 10 17 12 7 9 9 8 9 8 6 3 3 6 7 12 12 9 8 8 7 6 7 9 16 8 10 10 6 8 7
5 7 7 5 7 3 6 3 5 9 10 12 10 7 5 7 9 11 12 13 12 9 10 8 9 9 8 5 5 5 4 4 7 10 12 9 7 8 7 7 10 9 8 10 7 4 5 7 7
6 4 7 8 9 8 5 12 13 7 10 10 10 6 9 8 9 8 10 9 4 9 10 13 12 11 9 7 4 5 5 5 5 8 12 10 9 10 9 7 8 8 10 11 7 6 6 7 7
4 5 6 6 8 6 8 9 4 6 5 8 7 9 6 7 10 7 8 14 9 15 12 11 12 10 9 8 8 6 5 6 6 6 10 14 11 10 9 7 8 8 9 10 9 7 7 7 7
4 6 5 6 6 7 4 7 9 10 6 6 6 8 8 9 9 11 13 14 18 17 10 15 13 11 11 9 8 6 6 6 7 7 11 16 14 13 13 10 9 8 8 10 9 6 5 7 5
2 1 2 3 5 6 10 15 3 3 5 10 10 8 7 9 9 11 12 14 16 12 14 13 12 13 11 9 7 6 7 7 6 7 7 13 14 17 14 11 9 9 8 10 10 8 5 5 7
2 7 7 4 5 2 7 13 5 4 9 8 8 9 10 10 11 10 12 12 14 11 13 15 15 16 13 9 7 7 7 6 8 7 7 12 15 15 17 13 10 12 8 10 11 7 8 7 5
7 6 4 4 2 2 6 15 8 9 7 10 9 9 10 12 16 11 12 10 9 9 11 14 13 14 12 7 6 6 7 7 7 7 9 15 13 9 17 13 13 12 10 9 9 11 4 5 7
1 4 5 1 3 5 14 19 10 8 6 9 10 8 10 14 14 9 10 6 6 8 12 15 16 12 10 7 8 6 7 6 6 6 7 12 11 17 14 13 13 11 12 12 13 10 12 3 5
5 5 13 4 7 6 8 19 11 9 7 9 8 9 10 12 18 16 10 7 8 11 12 14 15 14 11 8 7 3 4 4 4 4 7 9 6 13 13 15 13 12 10 11 13 12 6 3 8
6 8 4 9 2 6 5 12 4 5 3 5 7 7 9 13 16 19 9 7 7 10 12 13 12 15 12 12 8 4 3 3 3 4 7 8 9 10 11 12 12 12 10 10 13 13 14 8 4
15 10 11 10 4 4 3 13 5 5 2 3 9 9 10 10 13 13 10 6 9 7 7 8 11 13 10 11 11 11 9 6 3 5 6 8 10 12 11 11 11 11 9 11 11 10 11 7 9
7 7 8 5 5 2 4 3 4 7 9 6 7 8 8 8 10 14 16 10 7 8 9 9 13 12 10 10 10 11 7 4 4 4 7 9 11 12 12 12 11 11 9 10 13 11 7 6 10
3 4 3 3 3 4 9 7 14 2 4 3 4 7 6 8 11 13 15 8 5 7 10 13 15 12 11 9 8 10 8 7 7 7 7 6 8 10 14 13 12 11 10 11 11 11 10 7 9
4 5 1 2 1 5 6 5 14 7 6 2 3 6 7 6 9 14 16 12 6 10 13 13 17 14 13 11 9 8 8 8 9 8 8 8 7 6 11 14 15 12 13 11 12 11 10 9 8
7 9 6 6 5 3 1 6 6 3 3 3 1 5 6 11 11 14 17 18 7 11 13 15 17 14 14 13 9 7 7 5 5 5 4 5 7 8 10 14 14 15 16 13 13 10 9 9 7
4 5 3 3 1 2 5 6 5 5 9 9 10 9 9 11 10 12 16 16 6 7 13 14 16 14 14 11 9 8 8 7 6 6 5 5 7 6 8 14 15 17 16 16 16 10 11 10 7
2 2 3 2 4 5 3 2 2 9 8 8 10 9 9 12 12 13 14 17 15 7 9 9 13 13 10 11 10 8 7 5 5 5 6 7 8 9 11 13 14 16 19 19 16 12 13 14 10
1 2 4 4 2 1 2 4 4 5 5 9 9 7 9 13 10 13 17 19 20 7 9 9 10 11 11 9 9 8 7 6 5 3 3 4 5 8 11 15 15 15 19 19 18 17 17 17 15
4 3 3 4 3 2 1 6 5 4 4 8 11 10 9 9 11 16 20 22 7 7 9 9 10 10 9 4 8 8 8 8 7 5 4 4 3 5 7 8 11 12 15 18 19 18 17 17 16
Wind_Direction
166 60 47 42 50 63 262 257 264 300 272 231 119 144 189 160 165 207 308 168 132 134 147 174 170 162 160 153 142 145 145 145 135 135 136 138 139 139 137 132 132 132 134 139 134 132 128 124 119
128 104 44 73 90 63 264 246 220 218 251 334 157 96 163 243 228 266 126 189 158 144 155 178 172 164 162 156 151 148 147 151 152 145 141 142 142 140 137 134 134 133 137 142 140 135 129 126 119
115 58 82 91 112 185 222 211 213 248 251 138 323 226 175 213 218 205 225 158 142 153 164 177 174 169 166 161 157 151 148 150 149 152 145 146 146 147 144 143 139 139 142 149 144 138 130 127 122
99 19 39 95 225 249 220 225 288 336 343 181 171 279 275 225 167 192 160 144 155 165 165 168 175 170 169 167 163 158 153 150 143 141 149 136 154 147 139 133 135 143 153 155 145 134 133 131 123
46 62 51 289 250 255 255 263 235 302 283 251 158 229 250 303 309 190 160 160 172 169 162 159 178 174 171 174 168 160 159 151 152 165 160 150 165 131 124 127 139 150 155 160 141 133 135 133 128
55 97 74 252 241 241 267 250 238 237 272 288 181 143 247 326 215 196 168 180 173 156 147 147 179 182 173 181 173 164 162 157 159 156 145 148 153 139 146 143 161 153 155 152 137 136 136 132 130
125 105 208 255 263 282 231 197 190 229 332 359 195 204 265 292 212 115 85 84 102 129 141 151 169 186 181 176 179 168 163 161 163 160 156 163 151 164 155 138 183 158 157 140 140 139 133 135 134
114 109 161 229 245 275 255 296 156 54 297 309 101 230 295 303 83 94 90 99 133 164 156 166 168 182 185 186 177 174 165 167 175 163 157 158 158 164 168 135 175 172 154 145 147 136 136 139 137
131 93 191 227 184 224 254 25 275 276 257 350 237 203 239 164 145 109 102 135 171 190 197 172 179 183 187 195 187 177 176 175 173 168 166 164 169 169 165 157 169 161 152 146 149 141 133 142 140
149 177 205 215 206 250 232 352 304 347 331 303 295 259 252 138 212 158 180 203 211 211 202 190 179 179 176 188 187 186 186 182 179 174 170 170 170 168 169 161 166 158 158 148 149 138 135 131 134
198 215 218 242 227 256 254 223 221 273 300 240 283 282 177 206 224 210 208 203 211 203 195 194 178 169 168 178 185 176 161 180 181 187 172 169 164 170 167 170 168 158 146 148 140 136 132 142 138
224 235 204 217 236 215 251 235 239 204 232 249 244 255 270 231 219 222 227 222 211 189 198 186 185 171 173 163 173 179 172 173 185 187 183 166 170 172 172 179 169 157 155 149 141 135 124 131 135
224 227 228 225 249 251 254 263 264 229 241 252 275 271 251 249 241 242 247 263 239 225 198 197 182 182 171 163 151 177 181 187 194 184 185 175 181 181 179 170 161 162 163 148 137 137 133 130 132
212 216 245 240 239 240 244 252 163 287 234 251 272 276 269 251 241 250 251 252 227 226 208 186 190 181 166 166 168 185 176 192 203 201 186 182 182 182 181 164 157 157 163 147 144 147 138 140 137
248 275 262 215 208 230 225 267 234 238 264 263 289 294 286 235 245 235 244 241 240 230 203 186 178 171 174 173 171 169 175 184 199 194 194 192 185 188 174 173 160 162 147 136 128 125 123 133 132
258 237 289 254 188 245 152 262 185 306 31 320 301 281 271 272 229 238 241 242 249 227 191 169 168 171 173 170 166 174 177 190 195 194 194 197 196 184 177 167 163 150 157 144 147 150 133 133 141
295 256 230 305 211 207 202 278 240 323 327 283 270 281 290 289 282 245 244 243 247 212 171 170 168 173 169 165 159 175 180 194 203 200 208 210 208 196 180 177 157 150 152 149 151 152 153 146 137
210 239 241 203 347 138 275 268 277 279 284 281 285 275 277 275 265 261 256 260 241 181 175 168 168 169 159 154 163 177 191 203 202 205 210 210 207 199 172 156 147 150 152 151 153 156 123 132 155
148 223 244 335 281 327 277 275 278 269 277 282 278 274 282 285 282 274 269 254 167 164 167 170 161 167 155 155 176 185 199 199 206 204 206 191 191 211 159 143 147 151 160 158 154 159 148 97 132
228 267 272 265 245 195 262 276 271 258 251 240 264 280 284 289 295 290 267 213 195 183 176 171 169 160 166 162 179 159 167 185 187 188 176 166 150 141 143 145 151 156 152 155 157 159 136 118 164
203 218 186 231 319 255 279 278 202 261 243 281 292 272 277 278 290 299 292 220 204 194 186 177 166 158 161 170 168 133 127 127 144 167 154 156 140 133 133 142 153 161 157 163 164 165 173 151 204
247 184 225 255 129 236 106 287 205 208 253 314 276 287 289 306 315 309 303 243 213 192 162 169 165 159 154 156 177 170 180 170 156 175 163 165 156 147 147 151 156 161 162 169 168 172 174 143 173
217 171 192 198 196 183 196 236 100 335 310 290 303 301 317 332 320 324 316 255 214 169 164 157 168 164 154 169 177 174 170 156 145 148 158 160 166 167 161 161 161 168 169 174 168 168 170 165 172
122 152 163 92 131 256 177 151 288 188 172 278 304 312 331 329 333 326 331 274 194 167 162 168 173 168 160 176 176 162 151 144 165 174 168 177 167 165 169 171 172 174 175 175 172 172 168 161 172
131 101 275 314 187 231 152 176 256 284 297 110 311 300 312 340 339 345 346 335 208 191 186 182 178 169 164 175 185 157 157 161 167 176 184 171 182 181 178 176 180 180 178 173 170 167 162 156 163
178 164 169 204 201 235 303 233 240 245 62 10 288 320 339 344 335 343 348 353 219 204 202 189 185 169 162 170 175 161 161 164 172 176 174 189 199 190 186 195 183 183 178 170 172 168 165 150 148
162 165 185 131 20 85 225 295 305 20 14 10 354 350 339 323 323 339 350 339 269 220 214 200 187 176 164 164 163 171 176 176 176 169 179 193 202 205 193 203 194 184 180 171 169 168 158 146 144
105 99 117 33 184 243 236 265 239 7 342 332 332 333 325 332 335 338 345 334 325 206 202 192 188 187 171 160 165 171 177 169 157 173 194 204 211 208 207 206 212 182 178 172 170 164 157 151 156
38 66 65 113 77 243 316 253 134 39 335 308 304 301 313 326 337 332 338 331 315 187 183 175 163 172 185 170 161 166 173 163 152 195 186 200 193 195 207 202 188 182 169 166 167 169 170 168 169
77 80 59 124 165 142 195 259 207 25 349 331 282 295 302 319 338 347 344 332 287 183 172 166 158 164 176 180 150 172 169 164 162 178 159 158 171 161 170 180 180 169 172 168 165 164 165 164 168